GW3178 Weather Reports


time (UTC)temp
C
wind
direction
speed
KPH
gust
KPH
rain 1hr
cm
rain 24hr
cm
rain mn
cm
humidity
%
barometer
mb
20260507105300 6 158 0.0 0.0 0.00 0.00 0.00 90 1013.2
20260507104758 5 153 0.0 0.0 0.00 0.00 0.00 89 1012.9
20260507104254 6 158 0.0 0.0 0.00 0.00 0.00 88 1013.0
20260507103750 5 159 0.0 0.0 0.00 0.00 0.00 87 1012.8
20260507103246 5 159 0.0 0.0 0.00 0.00 0.00 86 1012.5
20260507102742 5 160 0.0 0.0 0.00 0.00 0.00 86 1012.8
20260507102234 5 160 0.0 0.0 0.00 0.00 0.00 85 1012.6
20260507101730 6 158 0.0 0.0 0.00 0.00 0.00 84 1012.6
20260507101225 6 162 0.0 0.0 0.00 0.00 0.00 83 1012.4
20260507100722 6 173 0.0 0.0 0.00 0.00 0.00 81 1012.4
20260507100221 6 173 0.0 0.0 0.00 0.00 0.00 80 1012.5
20260507095718 6 173 0.0 0.0 0.00 0.00 0.00 79 1012.3
20260507095209 7 174 0.0 0.0 0.00 0.00 0.00 78 1012.4
20260507094706 7 179 0.0 0.0 0.00 0.00 0.00 78 1012.6
20260507094203 7 178 0.0 0.0 0.00 0.00 0.00 78 1012.5
20260507093659 7 179 0.0 0.0 0.00 0.00 0.00 78 1012.3
20260507093158 7 170 0.0 0.0 0.00 0.00 0.00 77 1012.6
20260507092655 7 172 0.0 0.0 0.00 0.00 0.00 77 1012.8
20260507092151 7 179 0.0 0.0 0.00 0.00 0.00 77 1012.8
20260507091648 7 181 0.0 0.0 0.00 0.00 0.00 77 1012.9
20260507091144 7 178 0.0 0.0 0.00 0.00 0.00 79 1012.9
20260507090640 8 188 0.0 0.0 0.00 0.00 0.00 80 1012.6
20260507090137 8 183 0.0 0.0 0.00 0.00 0.00 78 1012.6
20260507085634 8 199 0.0 0.0 0.00 0.00 0.00 79 1012.4
20260507085131 8 166 0.0 0.0 0.00 0.00 0.00 78 1012.4
20260507084628 7 285 0.0 0.0 0.00 0.00 0.00 80 1012.6
20260507084124 7 170 0.0 0.0 0.00 0.00 0.00 81 1012.5
20260507083621 8 160 0.0 0.0 0.00 0.00 0.00 83 1012.6
20260507083118 8 161 0.0 0.0 0.00 0.00 0.00 80 1012.4
20260507082614 7 172 0.0 0.0 0.00 0.00 0.00 82 1012.3
20260507082110 7 160 0.0 0.0 0.00 0.00 0.00 91 1012.5
20260507081607 7 161 0.0 0.0 0.00 0.00 0.00 91 1012.5
20260507081104 7 161 0.0 0.0 0.00 0.00 0.00 92 1012.3
20260507080600 7 161 0.0 0.0 0.00 0.00 0.00 92 1012.3
20260507080056 7 160 0.0 0.0 0.00 0.00 0.00 93 1012.3
20260507075551 7 160 0.0 0.0 0.00 0.00 0.00 93 1012.5
20260507075048 7 160 0.0 0.0 0.00 0.00 0.00 94 1012.6
20260507074545 7 160 0.0 0.0 0.00 0.00 0.00 94 1012.3
20260507074043 7 160 0.0 0.0 0.00 0.00 0.00 95 1012.3
20260507073538 7 159 0.0 0.0 0.00 0.00 0.00 95 1012.2
20260507073030 7 161 0.0 0.0 0.00 0.00 0.00 95 1012.3
20260507072527 7 161 0.0 0.0 0.00 0.00 0.00 95 1012.3
20260507072024 7 154 0.0 0.0 0.00 0.00 0.00 94 1012.5
20260507071522 7 155 0.0 0.0 0.00 0.00 0.00 94 1012.4
20260507071018 7 154 0.0 0.0 0.00 0.00 0.00 94 1012.2
20260507070515 7 155 0.0 0.0 0.00 0.00 0.00 94 1012.3
20260507070013 7 155 0.0 0.0 0.00 0.00 0.00 93 1012.4
20260507065508 7 150 0.0 0.0 0.00 0.00 0.00 92 1012.4
20260507065006 7 160 0.0 0.0 0.00 0.00 0.00 91 1012.1
20260507064504 7 160 0.0 0.0 0.00 0.00 0.00 91 1012.2
20260507064002 7 160 0.0 0.0 0.00 0.00 0.00 92 1012.1
20260507063459 7 155 0.0 0.0 0.00 0.00 0.00 92 1012.1
20260507062956 7 157 0.0 0.0 0.00 0.00 0.00 92 1012.6
20260507062453 7 157 0.0 0.0 0.00 0.00 0.00 91 1012.5
20260507061950 7 160 0.0 0.0 0.00 0.00 0.00 91 1012.6
20260507061448 8 162 0.0 0.0 0.00 0.00 0.00 90 1012.5
20260507060946 8 165 0.0 0.0 0.00 0.00 0.00 90 1012.5
20260507060443 8 173 0.0 0.0 0.00 0.00 0.00 89 1012.4
20260507055939 8 173 0.0 0.0 0.00 0.00 0.00 89 1012.5
20260507055434 8 173 0.0 0.0 0.00 0.00 0.00 89 1012.3
20260507054932 8 173 0.0 0.0 0.00 0.00 0.00 89 1012.5
20260507054428 9 195 0.0 0.0 0.00 0.00 0.00 89 1012.3
20260507053925 9 172 0.0 0.0 0.00 0.00 0.00 89 1012.3
20260507053422 9 161 0.0 0.0 0.00 0.00 0.00 89 1012.3
20260507052920 9 172 0.0 0.0 0.00 0.00 0.00 89 1012.3
20260507052417 10 168 0.0 0.0 0.00 0.00 0.00 88 1012.4
20260507051909 10 171 0.0 0.0 0.00 0.00 0.00 89 1012.2
20260507051407 10 170 0.0 0.0 0.00 0.00 0.00 89 1012.4
20260507050903 10 170 0.0 0.0 0.00 0.00 0.00 87 1012.4
20260507050400 10 198 0.0 0.0 0.00 0.00 0.00 86 1012.3
20260507045857 10 181 0.0 0.0 0.00 0.00 0.00 87 1012.4
20260507045353 10 176 0.0 0.0 0.00 0.00 0.00 89 1012.2
20260507044851 10 167 0.0 0.0 0.00 0.00 0.00 91 1012.0
20260507044347 10 180 0.0 0.0 0.00 0.00 0.00 92 1012.1
20260507043843 10 177 0.0 0.0 0.00 0.00 0.00 94 1012.1
20260507043340 10 177 0.0 0.0 0.00 0.00 0.00 93 1012.0
20260507042836 10 177 0.0 0.0 0.00 0.00 0.00 93 1012.0
20260507042332 10 180 0.0 0.0 0.00 0.00 0.00 93 1012.0
20260507041829 10 178 0.0 0.0 0.00 0.00 0.00 93 1012.0
20260507041325 10 173 0.0 0.0 0.00 0.00 0.00 94 1012.1
20260507040823 10 173 0.0 0.0 0.00 0.00 0.00 95 1012.1
20260507040319 10 172 0.0 0.0 0.00 0.00 0.00 95 1011.9
20260507035815 10 171 0.0 0.0 0.00 0.79 0.79 95 1011.7
20260507035310 10 171 0.0 0.0 0.00 0.79 0.79 95 1011.8
20260507034808 10 172 0.0 0.0 0.00 0.79 0.79 95 1011.8
20260507034305 9 154 0.0 0.0 0.00 0.79 0.79 95 1011.7
20260507033803 9 154 0.0 0.0 0.00 0.79 0.79 95 1012.1
20260507033301 9 153 0.0 0.0 0.00 0.79 0.79 95 1011.9
20260507032757 9 147 0.0 0.0 0.00 0.79 0.79 95 1012.1
20260507032253 9 174 0.0 0.0 0.00 0.79 0.79 95 1012.1
20260507031750 9 174 0.0 0.0 0.00 0.79 0.79 95 1012.2
20260507031247 9 175 0.0 0.0 0.00 0.79 0.79 95 1012.2
20260507030744 9 156 0.0 0.0 0.00 0.79 0.79 94 1012.1
20260507030241 9 156 0.0 0.0 0.00 0.79 0.79 94 1011.7
20260507025738 9 156 0.0 0.0 0.00 0.79 0.79 94 1011.9
20260507025235 9 154 0.0 0.0 0.00 0.79 0.79 93 1011.8
20260507024733 10 154 0.0 0.0 0.00 0.79 0.79 93 1011.9
20260507024231 10 154 0.0 0.0 0.00 0.79 0.79 92 1011.9
20260507023726 10 157 0.0 0.0 0.00 0.79 0.79 92 1011.9
20260507023223 10 157 0.0 0.0 0.00 0.79 0.79 91 1011.7
20260507022720 10 157 0.0 0.0 0.00 0.79 0.79 90 1011.8
20260507022216 10 157 0.0 0.0 0.00 0.79 0.79 90 1011.9
20260507021712 11 157 0.0 0.0 0.00 0.79 0.79 89 1012.0
20260507021208 11 157 0.0 0.0 0.00 0.79 0.79 88 1012.2
20260507020707 11 158 0.0 0.0 0.00 0.79 0.79 87 1012.4
20260507020202 11 158 0.0 0.0 0.00 0.79 0.79 87 1012.1
20260507015700 11 165 0.0 0.0 0.00 0.79 0.79 87 1012.3
20260507015158 11 185 0.0 0.0 0.00 0.79 0.79 87 1012.5
20260507014654 11 165 0.0 0.0 0.00 0.79 0.79 87 1012.2
20260507014150 11 165 0.0 0.0 0.00 0.79 0.79 88 1012.3
20260507013647 11 180 0.0 0.0 0.00 0.79 0.79 88 1012.3
20260507013144 11 176 0.0 0.0 0.00 0.79 0.79 86 1012.1
20260507012642 11 176 0.0 0.0 0.00 0.79 0.79 87 1012.0
20260507012137 11 180 0.0 0.0 0.00 0.79 0.79 87 1012.2
20260507011636 11 158 0.0 0.0 0.00 0.79 0.79 87 1012.0
20260507011131 11 169 0.0 0.0 0.00 0.79 0.79 88 1012.8
20260507010626 11 172 0.0 0.0 0.00 0.79 0.79 87 1012.4
20260507010122 11 180 0.0 0.0 0.00 0.79 0.79 88 1012.2
20260507005620 11 182 0.0 0.0 0.00 0.79 0.79 87 1011.9
20260507005116 11 180 0.0 0.0 0.00 0.79 0.79 87 1012.1
20260507004613 11 179 0.0 0.0 0.00 0.79 0.79 88 1011.9
20260507004110 11 178 0.0 0.0 0.00 0.79 0.79 88 1011.7
20260507003606 11 180 0.0 0.0 0.00 0.79 0.79 87 1011.8
20260507003101 11 176 0.0 0.0 0.00 0.79 0.79 87 1011.4
20260507002558 11 173 0.0 0.0 0.00 0.79 0.79 87 1011.5
20260507002054 11 174 0.0 0.0 0.00 0.79 0.79 87 1011.6
20260507001551 11 177 0.0 0.0 0.00 0.79 0.79 86 1011.2
20260507001048 11 182 0.0 0.0 0.00 0.79 0.79 87 1011.3
20260507000544 11 175 0.0 0.0 0.00 0.79 0.79 87 1011.0
20260507000040 11 173 0.0 0.0 0.00 0.79 0.79 87 1011.1
20260506235537 11 161 0.0 0.0 0.00 0.79 0.79 86 1010.9
20260506235032 11 149 0.0 0.0 0.00 0.79 0.79 85 1010.7
20260506234530 11 121 0.0 0.0 0.00 0.79 0.79 85 1010.7
20260506234022 11 185 0.0 0.0 0.00 0.79 0.79 85 1010.8
20260506233518 11 151 0.0 0.0 0.00 0.79 0.79 86 1010.6
20260506233016 11 153 0.0 0.0 0.00 0.79 0.79 86 1010.5
20260506232512 11 158 0.0 0.0 0.00 0.79 0.79 85 1010.6
20260506232007 11 191 0.0 0.0 0.00 0.79 0.79 86 1010.6
20260506231505 11 149 0.0 0.0 0.00 0.79 0.79 86 1010.5
20260506231003 11 146 0.0 0.0 0.00 0.79 0.79 86 1010.5
20260506230458 11 170 0.0 0.0 0.00 0.79 0.79 86 1010.3
20260506225956 12 119 0.0 1.6 0.00 0.79 0.79 86 1010.5
20260506225453 12 152 0.0 0.0 0.00 0.79 0.79 86 1010.5
20260506224949 12 100 0.0 0.0 0.00 0.79 0.79 87 1010.4
20260506224446 12 155 0.0 0.0 0.00 0.79 0.79 87 1010.2
20260506223943 12 169 0.0 0.0 0.00 0.79 0.79 87 1010.2
20260506223438 12 152 0.0 0.0 0.00 0.79 0.79 87 1010.3
20260506222936 12 186 0.0 0.0 0.00 0.79 0.79 86 1010.3
20260506222432 12 134 0.0 0.0 0.00 0.79 0.79 87 1010.3
20260506221929 12 201 0.0 0.0 0.00 0.79 0.79 87 1010.3
20260506221426 12 138 0.0 0.0 0.00 0.79 0.79 86 1010.0
20260506220924 12 185 0.0 0.0 0.00 0.79 0.79 87 1010.2
20260506220419 12 171 0.0 0.0 0.00 0.79 0.79 87 1010.1
20260506215916 12 224 0.0 0.0 0.00 0.79 0.79 87 1009.7
20260506215412 12 194 0.0 1.6 0.00 0.79 0.79 87 1009.8
20260506214908 12 161 0.0 0.0 0.00 0.79 0.79 87 1009.7
20260506214405 12 169 0.0 0.0 0.00 0.79 0.79 88 1009.5
20260506213903 12 194 0.0 0.0 0.00 0.79 0.79 88 1009.5
20260506213401 12 186 1.6 3.2 0.00 0.79 0.79 88 1009.3
20260506212858 12 180 0.0 0.0 0.00 0.79 0.79 89 1009.2
20260506212353 12 143 0.0 0.0 0.00 0.79 0.79 88 1008.9
20260506211848 12 145 0.0 0.0 0.00 0.79 0.79 91 1008.8
20260506211344 12 142 0.0 0.0 0.00 0.79 0.79 92 1008.9
20260506210842 12 169 0.0 0.0 0.00 0.79 0.79 93 1008.8
20260506210338 12 189 0.0 0.0 0.00 0.79 0.79 93 1008.6
20260506205836 12 165 0.0 0.0 0.00 0.79 0.79 93 1008.4
20260506205332 12 172 0.0 0.0 0.00 0.79 0.79 93 1008.5
20260506204828 13 169 0.0 0.0 0.00 0.79 0.79 92 1008.4
20260506204326 13 164 0.0 0.0 0.00 0.79 0.79 91 1008.4
20260506203824 13 178 0.0 0.0 0.00 0.79 0.79 92 1008.4
20260506203320 13 166 0.0 0.0 0.00 0.79 0.79 91 1008.2
20260506202817 13 198 0.0 0.0 0.00 0.79 0.79 91 1007.9
20260506202315 13 221 0.0 0.0 0.00 0.79 0.79 90 1007.7
20260506201811 14 174 0.0 0.0 0.00 0.79 0.79 89 1007.6
20260506201308 15 106 0.0 1.6 0.00 0.79 0.79 87 1007.5
20260506200805 16 225 3.2 3.2 0.00 0.79 0.79 87 1007.2
20260506200301 16 219 0.0 0.0 0.00 0.79 0.79 87 1007.0
20260506195757 17 173 0.0 1.6 0.00 0.79 0.79 87 1006.9
20260506195255 17 177 0.0 0.0 0.00 0.79 0.79 87 1007.0
20260506194752 17 171 0.0 0.0 0.00 0.79 0.79 87 1006.8
20260506194248 17 175 0.0 0.0 0.00 0.79 0.79 87 1006.8
20260506193746 16 188 1.6 3.2 0.00 0.79 0.79 88 1006.8
20260506193242 16 209 0.0 0.0 0.00 0.79 0.79 92 1006.6
20260506192738 16 170 0.0 0.0 0.00 0.79 0.79 93 1006.8
20260506192236 16 194 0.0 0.0 0.00 0.79 0.79 94 1006.9
20260506191732 16 169 0.0 0.0 0.00 0.79 0.79 94 1007.0
20260506191229 16 171 0.0 0.0 0.00 0.79 0.79 94 1006.8
20260506190726 16 165 0.0 0.0 0.00 0.79 0.79 95 1006.5
20260506190222 16 171 0.0 0.0 0.00 0.79 0.79 95 1006.9
20260506185720 16 170 0.0 0.0 0.00 0.79 0.79 95 1006.9
20260506185216 16 201 0.0 0.0 0.00 0.79 0.79 94 1006.9
20260506184714 16 192 0.0 0.0 0.00 0.79 0.79 94 1006.8
20260506184211 16 192 0.0 0.0 0.00 0.79 0.79 94 1007.2
20260506183707 16 174 0.0 0.0 0.00 0.79 0.79 94 1006.8
20260506183203 16 181 0.0 0.0 0.00 0.79 0.79 94 1006.6
20260506182701 16 180 0.0 0.0 0.00 0.79 0.79 94 1006.9
20260506182157 16 175 0.0 0.0 0.00 0.79 0.79 94 1006.5
20260506181655 16 183 0.0 0.0 0.00 0.79 0.79 94 1006.8
20260506181152 16 176 0.0 0.0 0.00 0.79 0.79 94 1006.8
20260506180650 16 192 0.0 0.0 0.00 0.79 0.79 94 1006.5
20260506180145 16 173 0.0 0.0 0.00 0.79 0.79 94 1006.8
20260506175642 16 173 0.0 0.0 0.00 0.79 0.79 95 1006.8
20260506175138 16 147 0.0 0.0 0.13 0.79 0.79 96 1006.9
20260506174631 16 145 0.0 0.0 0.13 0.79 0.79 95 1006.9
20260506174128 16 152 0.0 0.0 0.00 0.76 0.76 96 1006.8
20260506173626 15 151 0.0 0.0 0.00 0.76 0.76 96 1006.8
20260506173122 15 151 0.0 0.0 0.00 0.76 0.76 97 1006.6
20260506172619 15 149 0.0 0.0 0.00 0.76 0.76 97 1006.6
20260506172115 16 180 0.0 0.0 0.00 0.76 0.76 97 1006.6
20260506171613 15 156 0.0 0.0 0.00 0.76 0.76 98 1006.5
20260506171110 15 134 0.0 0.0 0.00 0.76 0.76 98 1006.6
20260506170607 15 144 0.0 0.0 0.00 0.76 0.76 98 1006.9
20260506170059 15 171 0.0 0.0 0.00 0.76 0.76 98 1007.1
20260506165557 15 154 0.0 0.0 0.00 0.76 0.76 98 1006.8
20260506165048 15 153 0.0 0.0 0.00 0.76 0.76 98 1006.8
20260506164545 15 160 0.0 0.0 0.00 0.76 0.76 99 1007.2
20260506164042 15 160 0.0 0.0 0.00 0.76 0.76 99 1007.2
20260506163538 15 155 0.0 0.0 0.00 0.76 0.76 99 1007.1
20260506163033 15 183 0.0 0.0 0.00 0.76 0.76 99 1007.2
20260506162530 15 156 0.0 0.0 0.00 0.76 0.76 99 1007.0
20260506162027 15 176 0.0 0.0 0.00 0.76 0.76 99 1007.1
20260506161524 15 174 0.0 0.0 0.00 0.76 0.76 99 1007.2
20260506161016 15 128 0.0 0.0 0.00 0.76 0.76 99 1007.0
20260506160513 15 148 0.0 0.0 0.00 0.76 0.76 99 1006.9
20260506160010 15 159 0.0 0.0 0.00 0.76 0.76 99 1007.1
20260506155508 15 156 0.0 0.0 0.00 0.76 0.76 99 1007.0
20260506153640 14 171 0.0 0.0 0.00 0.76 0.76 99 1007.4
20260506153137 15 181 0.0 0.0 0.00 0.76 0.76 99 1007.1
20260506152634 15 174 0.0 0.0 0.00 0.76 0.76 99 1007.0
20260506152132 14 155 0.0 0.0 0.00 0.76 0.76 98 1007.0
20260506151630 14 155 0.0 0.0 0.00 0.76 0.76 98 1006.6
20260506151127 14 151 0.0 0.0 0.00 0.76 0.76 98 1006.5
20260506150624 14 144 0.0 0.0 0.00 0.76 0.76 97 1006.6
20260506150121 14 163 0.0 0.0 0.00 0.76 0.76 97 1007.0
20260506145618 14 112 0.0 0.0 0.00 0.76 0.76 97 1007.1
20260506145114 14 138 0.0 0.0 0.30 0.76 0.76 97 1007.1
20260506144612 14 124 0.0 0.0 0.30 0.76 0.76 97 1007.1
20260506144108 14 144 0.0 0.0 0.18 0.71 0.71 97 1007.2
20260506143606 14 171 0.0 0.0 0.18 0.71 0.71 97 1007.1
20260506143104 14 137 0.0 0.0 0.13 0.69 0.69 97 1007.1
20260506142602 13 167 0.0 0.0 0.13 0.69 0.69 97 1006.9
20260506142100 13 115 0.0 0.0 0.00 0.66 0.66 98 1006.8
20260506141557 13 141 0.0 0.0 0.18 0.66 0.66 98 1007.0
20260506141056 13 144 0.0 0.0 0.30 0.66 0.66 98 1007.3
20260506140553 14 144 0.0 0.0 0.13 0.64 0.64 98 1006.9
20260506140050 14 134 0.0 0.0 0.18 0.61 0.61 98 1006.9
20260506135547 13 147 0.0 0.0 0.18 0.61 0.61 98 1007.0
20260506135043 13 149 0.0 0.0 0.18 0.58 0.58 99 1007.1
20260506134539 14 137 0.0 0.0 0.18 0.58 0.58 99 1007.0
20260506134035 13 141 0.0 0.0 0.00 0.56 0.56 99 1007.2
20260506133533 13 142 0.0 0.0 0.13 0.56 0.56 99 1007.2
20260506133030 13 142 0.0 0.0 0.13 0.56 0.56 99 1007.0
20260506132527 13 141 0.0 0.0 0.00 0.53 0.53 99 1007.0
20260506132024 14 128 0.0 0.0 0.00 0.53 0.53 99 1007.0
20260506131521 13 153 0.0 0.0 0.00 0.53 0.53 99 1007.1
20260506131017 13 153 0.0 0.0 0.00 0.53 0.53 99 1007.2
20260506130514 13 150 0.0 0.0 0.00 0.53 0.53 99 1007.0
20260506130012 14 157 0.0 0.0 0.30 0.53 0.53 99 1007.1
20260506125510 14 157 0.0 0.0 0.30 0.53 0.53 99 1007.2
20260506125008 13 154 0.0 0.0 0.18 0.48 0.48 99 1007.0
20260506124505 13 138 0.0 0.0 0.30 0.48 0.48 99 1007.2
20260506124003 13 132 0.0 0.0 0.30 0.46 0.46 99 1007.2
20260506123501 13 155 0.0 0.0 0.61 0.46 0.46 99 1007.3
20260506122958 13 129 0.0 0.0 0.30 0.41 0.41 99 1007.7
20260506122455 13 133 0.0 0.0 0.30 0.36 0.36 99 1007.8
20260506121953 13 110 0.0 0.0 0.43 0.36 0.36 99 1007.8
20260506121450 13 125 0.0 0.0 0.30 0.30 0.30 99 1007.9
20260506120946 13 120 0.0 0.0 0.18 0.28 0.28 99 1007.9
20260506120444 13 144 0.0 0.0 0.36 0.28 0.28 99 1008.0
20260506115941 13 149 0.0 0.0 0.18 0.25 0.25 99 1007.8
20260506115439 13 148 0.0 0.0 0.00 0.23 0.23 99 1007.7
20260506114937 13 136 0.0 0.0 0.13 0.23 0.23 99 1007.4
20260506114434 13 152 0.0 0.0 0.13 0.23 0.23 99 1007.5
20260506113933 13 140 0.0 0.0 0.13 0.23 0.23 99 1007.4
20260506113431 13 134 0.0 0.0 0.00 0.20 0.20 99 1007.3
20260506112927 13 144 0.0 0.0 0.18 0.20 0.20 99 1007.5
20260506112425 13 137 0.0 0.0 0.18 0.20 0.20 99 1007.4
20260506111921 13 141 0.0 0.0 0.00 0.18 0.18 99 1007.5
20260506111420 13 138 0.0 0.0 0.00 0.18 0.18 99 1007.2
20260506110916 13 133 0.0 0.0 0.00 0.18 0.18 99 1007.3
20260506110414 13 144 0.0 0.0 0.13 0.18 0.18 99 1007.2
20260506105910 13 139 0.0 0.0 0.13 0.18 0.18 98 1007.1